Location: Cahoon Acres
(40.8736°N, 111.8994°W)
Time: 12:39:37
(UTC+00:00)

SR - Pass Details

Date: 14 June 2020
Orbit: 583 x 872 km, 66.7° (Epoch: 14 July)

Event Time Altitude Azimuth Distance (km) Brightness Sun altitude
Rises 18:38:04 0° 203° (SSW) 3,274 ? 69.5°
Reaches altitude 10° 18:40:33 10° 202° (SSW) 2,305 ? 69.8°
Maximum altitude 18:45:48 75° 117° (ESE) 751 ? 70.3°
Drops below altitude 10° 18:50:38 10° 33° (NNE) 2,127 ? 70.8°
Sets 18:52:52 0° 32° (NNE) 3,002 ? 70.9°
